Wind_Speed
11 11 11 12 13 14 13 12 13 12 10 10 10 9 9 8 7 7 6 6 6 9 14 17 17 18 17 16 15 13 11 8 7 7 6 5 4 4 3 1 8 9 11
11 12 11 12 13 13 13 12 13 12 10 10 10 10 10 8 8 7 6 4 5 3 6 13 16 16 15 17 17 16 15 11 8 8 6 5 5 6 5 3 4 7 10
8 10 11 12 12 13 13 13 13 12 9 9 10 10 9 8 8 9 7 5 3 2 3 11 15 14 11 12 12 12 14 11 8 8 7 5 5 5 5 5 6 8 9
6 8 10 10 12 13 14 14 14 12 9 9 9 9 9 8 8 9 9 6 3 1 2 4 7 8 7 6 7 6 7 8 7 7 6 6 5 5 4 4 6 8 9
3 5 8 10 12 13 14 15 15 13 10 9 10 9 8 8 8 9 10 7 4 3 3 3 3 5 6 6 6 7 7 7 7 6 5 5 6 6 5 5 6 7 7
3 3 6 9 12 13 14 15 16 14 11 10 10 9 8 8 9 10 9 8 7 6 5 5 5 6 8 8 8 9 9 8 7 6 7 8 10 11 9 7 7 8 8
5 5 8 10 13 14 14 15 15 15 11 11 11 11 9 9 10 10 10 9 8 9 9 8 8 9 9 9 9 9 10 10 8 8 9 11 12 14 13 9 7 8 9
6 8 10 13 16 15 13 14 16 17 13 11 12 12 11 10 11 11 11 11 11 12 14 13 12 11 10 10 10 11 11 11 10 9 9 10 11 12 12 9 8 9 9
8 11 12 14 16 15 12 11 14 16 14 12 13 13 13 11 11 12 13 13 13 13 15 17 16 15 13 13 12 12 13 12 11 10 10 10 9 9 9 10 10 9 9
8 11 12 14 16 14 12 10 11 15 15 13 13 14 13 12 11 12 12 13 13 13 14 17 17 16 15 14 14 14 14 14 13 12 11 10 10 9 9 11 11 9 9
10 13 13 14 18 16 13 10 10 14 16 14 13 14 14 13 11 10 10 11 11 12 13 14 15 16 15 14 15 15 15 14 14 13 13 13 12 11 11 12 10 9 10
12 15 15 16 19 19 15 12 12 14 17 15 14 14 15 14 11 10 8 9 11 11 12 14 15 16 16 17 17 17 17 17 16 15 15 14 13 14 15 14 12 11 12
15 17 18 18 19 20 15 13 14 15 19 18 14 13 14 15 13 10 7 9 10 12 12 13 14 16 18 19 19 17 17 17 17 16 15 14 14 14 16 17 15 14 14
16 18 20 19 20 22 19 16 15 14 18 19 14 11 11 13 13 11 8 8 10 12 13 13 12 13 14 16 17 16 16 16 16 15 14 13 14 15 15 17 17 16 16
17 20 21 21 22 23 21 19 18 16 18 18 14 10 10 12 13 12 10 8 9 11 12 12 11 10 10 11 13 14 16 16 14 13 13 12 13 14 14 15 16 16 17
17 20 21 21 22 24 22 21 20 19 20 18 15 12 11 12 13 13 12 10 9 11 12 12 10 7 6 7 9 12 15 16 15 14 13 12 12 12 12 13 16 17 19
17 20 22 23 24 25 24 22 22 21 20 17 15 14 13 13 14 14 14 12 11 12 12 11 11 8 6 6 6 8 12 14 14 14 14 14 14 13 13 13 16 19 20
17 20 22 23 25 26 24 21 21 18 16 16 13 13 11 12 15 15 15 14 12 12 13 12 12 11 7 4 4 5 8 10 12 12 13 14 15 16 15 14 15 16 16
18 19 21 22 24 24 23 20 18 14 15 15 13 11 9 10 14 16 16 15 13 14 14 14 13 13 9 6 4 3 4 7 9 11 12 14 16 16 15 14 14 13 13
18 19 20 21 23 24 22 20 17 15 17 17 15 11 9 11 14 16 17 16 15 16 17 16 15 14 12 9 5 1 2 4 7 9 11 13 15 16 15 15 15 15 14
20 20 20 22 23 22 20 19 17 17 19 19 18 15 13 14 15 18 19 18 18 19 19 17 15 14 13 11 8 5 3 4 5 6 8 11 14 15 16 17 17 17 17
22 21 21 22 22 20 19 18 19 20 20 19 20 20 20 20 20 21 23 22 22 21 20 20 18 17 16 14 11 9 8 7 6 5 6 7 11 14 15 16 17 18 19
24 22 22 22 21 20 19 19 20 21 21 20 21 23 24 25 25 24 25 25 24 24 22 22 22 21 20 17 13 12 12 11 9 8 8 8 8 9 11 13 15 16 18
24 23 22 22 22 22 21 22 23 24 22 21 21 22 23 24 26 27 27 28 27 28 27 25 24 23 23 20 17 15 15 14 13 13 12 12 11 11 11 12 13 14 16
24 23 22 21 21 21 22 23 24 23 21 22 22 23 24 24 25 26 28 31 30 32 32 30 28 25 25 23 19 18 18 18 17 16 16 16 16 15 14 13 13 14 15
24 23 23 22 21 21 22 21 20 19 19 21 23 24 24 24 22 24 27 31 33 33 33 32 30 28 27 24 23 22 21 21 19 17 16 17 18 17 16 15 14 15 15
Wind_Direction
54 44 30 19 12 9 6 358 353 355 359 2 0 349 334 323 312 311 318 337 324 275 235 212 214 216 221 221 210 209 206 206 218 221 210 213 230 273 295 137 177 183 181
59 52 38 24 14 5 2 355 351 351 352 354 357 348 337 324 311 308 310 323 343 316 216 207 206 207 218 220 218 220 212 203 217 213 202 214 226 236 243 227 211 209 206
57 50 40 25 13 2 357 350 344 344 343 343 347 344 339 326 312 306 304 307 319 340 200 207 208 201 203 210 215 216 197 184 194 198 193 195 215 229 235 224 221 225 225
49 43 36 24 10 1 355 346 340 342 332 329 333 335 334 323 306 302 302 296 284 241 164 177 187 179 173 188 200 193 175 175 183 186 186 195 216 230 239 239 239 238 239
17 32 28 18 4 355 349 344 341 342 327 317 320 322 320 323 312 306 306 291 264 229 184 177 184 188 185 198 202 186 180 189 194 191 199 216 232 245 252 264 266 251 234
331 5 15 9 359 349 346 344 342 342 327 308 309 312 309 303 306 301 300 289 264 240 221 204 199 206 208 207 205 191 187 200 219 232 249 259 258 256 257 264 268 247 227
332 343 354 357 351 346 347 344 341 340 330 307 302 303 302 294 296 293 282 273 261 244 233 223 216 217 217 214 208 199 198 208 232 258 277 280 269 257 252 250 249 227 215
337 344 349 353 351 345 343 344 343 341 333 313 302 296 292 291 296 292 276 261 254 245 237 231 229 226 223 222 217 212 212 221 238 256 274 279 270 251 242 233 219 201 193
345 354 353 352 350 344 337 339 343 338 333 317 304 294 289 290 300 299 279 263 253 245 237 231 233 234 230 225 222 220 225 236 250 258 269 271 265 244 224 212 186 176 171
339 351 349 351 351 341 327 327 332 335 334 320 304 294 289 288 298 302 289 269 254 244 236 232 233 234 230 225 224 227 232 242 250 258 266 264 252 233 215 194 176 174 173
338 347 351 355 358 347 327 317 327 336 338 326 306 294 284 277 286 294 290 269 252 241 236 235 234 229 226 226 227 229 233 243 251 258 260 256 245 230 217 198 183 189 191
338 345 350 352 357 353 335 311 311 327 331 323 309 297 283 272 272 278 278 262 250 242 239 241 239 237 237 233 233 235 242 247 252 256 257 253 242 226 216 210 205 203 201
341 348 350 343 344 347 334 312 299 311 326 325 310 298 282 269 261 261 259 256 252 246 246 247 246 246 244 236 234 240 243 245 252 255 254 249 235 223 215 214 214 209 202
339 347 351 345 337 339 330 310 297 299 321 326 315 299 281 266 254 249 246 250 244 243 249 249 246 248 243 236 236 241 243 246 250 251 247 238 225 217 213 214 213 210 206
334 339 345 346 342 337 327 311 295 294 319 325 315 300 284 267 252 244 240 239 236 240 247 251 246 242 245 242 239 239 239 243 248 247 239 229 218 212 211 211 212 213 213
325 331 337 341 338 333 325 313 301 301 314 320 314 303 289 269 252 244 239 236 232 237 243 250 240 221 239 250 246 243 238 237 245 245 234 228 219 215 216 216 215 217 219
318 325 330 336 334 329 323 311 306 306 308 314 315 312 297 270 252 244 238 236 234 236 239 245 238 215 222 240 249 249 240 234 239 239 233 228 222 218 219 218 218 221 224
309 318 323 327 326 325 320 309 305 305 308 314 313 312 299 270 251 243 239 237 235 237 238 241 241 229 223 245 284 259 235 226 230 230 226 222 220 219 219 220 220 223 225
304 313 317 320 320 318 312 303 298 293 303 307 312 305 288 271 249 241 239 237 232 236 242 239 246 235 226 242 288 295 232 221 226 225 220 220 221 221 221 222 223 224 226
300 308 312 316 315 311 308 301 295 285 296 293 300 301 281 270 254 243 240 237 233 236 241 238 242 236 231 232 241 249 178 210 224 227 223 221 222 222 224 227 228 227 230
298 304 309 313 311 304 302 295 289 287 292 289 287 288 283 275 264 253 247 241 237 236 236 236 235 231 229 220 218 226 204 192 206 214 221 220 220 221 223 229 235 237 235
298 302 306 308 305 298 294 290 286 288 290 285 279 278 277 276 273 263 253 245 238 236 235 232 229 230 229 222 218 224 230 223 218 206 203 210 219 223 225 228 235 241 240
295 298 302 304 302 293 288 289 289 288 285 276 270 268 270 272 273 266 253 244 238 236 234 227 223 230 231 228 227 225 230 227 230 228 218 214 220 231 237 238 240 243 245
292 295 299 301 298 290 287 288 287 283 276 267 261 261 265 271 269 260 249 239 235 234 232 226 223 231 234 234 235 235 234 236 240 244 238 231 227 231 236 241 243 244 248
293 293 295 295 292 288 287 286 284 279 269 262 259 262 266 271 267 255 244 236 233 234 232 228 229 235 234 232 237 240 242 244 244 242 241 239 236 234 236 239 243 248 252
295 296 296 296 292 290 287 285 281 276 267 262 263 267 271 274 266 252 243 236 233 234 233 230 231 233 229 233 239 240 244 247 246 239 237 239 239 235 237 242 249 253 254
Height
5885 5884 5883 5882 5881 5880 5879 5877 5876 5875 5874 5874 5873 5873 5872 5871 5870 5869 5868 5866 5863 5861 5861 5864 5869 5872 5875 5878 5879 5881 5883 5884 5885 5886 5888 5890 5891 5892 5892 5893 5893 5894 5896
5885 5884 5883 5882 5881 5880 5878 5877 5876 5875 5874 5873 5872 5871 5870 5869 5868 5867 5867 5866 5864 5862 5862 5864 5867 5871 5873 5875 5877 5879 5881 5882 5884 5885 5887 5888 5890 5891 5892 5893 5894 5895 5896
5885 5884 5883 5882 5881 5879 5878 5876 5875 5874 5873 5872 5871 5870 5869 5868 5867 5866 5866 5866 5865 5864 5864 5865 5867 5869 5871 5873 5875 5876 5878 5880 5883 5885 5886 5888 5889 5890 5891 5892 5893 5894 5895
5885 5883 5882 5881 5881 5879 5878 5875 5874 5873 5872 5871 5870 5869 5868 5867 5866 5865 5865 5866 5866 5866 5866 5867 5867 5869 5871 5873 5875 5876 5878 5880 5882 5884 5885 5886 5888 5889 5890 5891 5892 5893 5894
5884 5883 5881 5881 5880 5879 5876 5874 5873 5872 5871 5870 5869 5868 5867 5866 5865 5865 5865 5865 5866 5867 5867 5867 5868 5869 5871 5873 5875 5876 5878 5880 5882 5883 5884 5885 5887 5888 5889 5890 5890 5891 5892
5883 5882 5880 5880 5879 5877 5875 5873 5872 5870 5870 5869 5868 5867 5867 5866 5865 5864 5863 5864 5865 5866 5867 5867 5868 5869 5870 5873 5874 5876 5878 5880 5882 5883 5884 5885 5886 5887 5887 5888 5888 5890 5891
5883 5881 5880 5879 5877 5875 5874 5872 5870 5869 5868 5868 5867 5866 5865 5865 5864 5863 5863 5863 5864 5866 5866 5867 5868 5868 5870 5872 5873 5875 5877 5879 5881 5882 5882 5883 5884 5885 5886 5886 5886 5888 5889
5882 5881 5879 5878 5876 5874 5872 5871 5869 5868 5867 5866 5865 5864 5863 5863 5862 5862 5861 5861 5862 5864 5865 5866 5866 5867 5869 5871 5872 5874 5876 5878 5879 5880 5881 5881 5882 5882 5883 5884 5885 5886 5888
5881 5880 5878 5876 5874 5872 5870 5869 5868 5866 5865 5864 5863 5862 5861 5861 5860 5860 5859 5859 5859 5860 5862 5863 5864 5865 5867 5869 5871 5873 5875 5876 5878 5879 5879 5880 5880 5880 5882 5883 5884 5885 5887
5880 5879 5877 5874 5872 5870 5868 5867 5866 5864 5863 5861 5860 5859 5859 5858 5858 5857 5857 5856 5856 5857 5859 5860 5861 5863 5865 5867 5869 5871 5873 5874 5876 5876 5877 5878 5879 5879 5881 5882 5884 5886 5887
5878 5877 5875 5872 5870 5868 5866 5865 5864 5862 5861 5859 5858 5856 5855 5855 5855 5854 5854 5854 5854 5855 5856 5857 5858 5861 5863 5865 5867 5868 5870 5872 5873 5874 5875 5876 5877 5878 5879 5881 5883 5885 5887
5876 5875 5873 5870 5868 5866 5864 5864 5862 5861 5859 5857 5855 5854 5853 5852 5852 5852 5852 5853 5853 5854 5855 5856 5857 5859 5860 5862 5864 5866 5868 5869 5870 5871 5872 5873 5874 5875 5878 5880 5882 5884 5886
5874 5872 5870 5867 5865 5864 5862 5861 5860 5858 5857 5855 5852 5851 5850 5849 5850 5850 5850 5851 5852 5852 5853 5854 5855 5856 5858 5859 5861 5862 5864 5866 5867 5868 5869 5870 5871 5873 5875 5877 5880 5883 5885
5870 5868 5866 5864 5862 5861 5859 5857 5856 5855 5853 5851 5849 5848 5847 5847 5847 5848 5849 5849 5850 5851 5852 5852 5853 5854 5855 5856 5857 5859 5861 5862 5864 5865 5866 5867 5869 5870 5872 5875 5878 5881 5883
5866 5865 5863 5861 5859 5857 5855 5853 5852 5851 5850 5848 5846 5844 5844 5844 5844 5845 5847 5847 5848 5849 5850 5851 5851 5852 5854 5854 5854 5855 5857 5859 5861 5862 5863 5865 5866 5868 5870 5873 5876 5879 5881
5863 5862 5860 5857 5855 5853 5850 5849 5847 5847 5846 5845 5843 5841 5841 5841 5842 5842 5844 5845 5845 5846 5848 5849 5849 5850 5852 5852 5852 5853 5854 5856 5858 5859 5861 5862 5864 5866 5868 5870 5873 5877 5880
5861 5859 5856 5854 5851 5849 5847 5845 5844 5844 5843 5842 5840 5839 5838 5838 5838 5839 5841 5842 5843 5843 5845 5847 5848 5848 5849 5850 5850 5851 5851 5853 5855 5856 5858 5860 5862 5864 5866 5868 5871 5874 5877
5857 5855 5852 5850 5848 5845 5844 5842 5841 5841 5840 5839 5837 5836 5835 5835 5835 5836 5838 5840 5840 5841 5843 5845 5846 5847 5848 5849 5849 5849 5850 5851 5853 5854 5856 5858 5860 5862 5865 5867 5870 5872 5875
5853 5851 5849 5846 5844 5842 5841 5839 5837 5837 5837 5835 5834 5833 5833 5833 5833 5833 5835 5838 5838 5839 5841 5843 5844 5846 5847 5848 5848 5848 5848 5849 5851 5853 5855 5857 5859 5862 5865 5867 5869 5871 5873
5849 5846 5844 5842 5840 5838 5836 5834 5833 5833 5833 5831 5830 5830 5830 5831 5831 5831 5833 5835 5836 5837 5838 5840 5842 5844 5846 5847 5848 5848 5848 5848 5849 5851 5853 5856 5858 5861 5864 5866 5868 5870 5871
5844 5842 5840 5838 5836 5834 5832 5830 5829 5829 5829 5827 5826 5825 5826 5828 5828 5828 5829 5831 5833 5834 5836 5838 5839 5841 5843 5845 5847 5847 5848 5849 5849 5850 5852 5854 5857 5859 5861 5863 5866 5867 5869
5839 5837 5835 5833 5831 5829 5827 5826 5826 5825 5824 5823 5822 5821 5821 5823 5824 5825 5825 5827 5829 5831 5833 5835 5837 5839 5841 5843 5845 5846 5847 5849 5848 5849 5851 5853 5854 5856 5858 5860 5863 5865 5866
5833 5831 5829 5827 5825 5823 5822 5821 5820 5820 5819 5818 5818 5817 5817 5818 5819 5819 5820 5822 5824 5826 5829 5831 5833 5836 5838 5841 5842 5844 5846 5846 5847 5848 5849 5851 5853 5854 5856 5858 5860 5862 5863
5828 5826 5823 5821 5819 5817 5815 5814 5813 5813 5813 5813 5812 5812 5812 5813 5813 5813 5814 5816 5818 5821 5824 5827 5830 5832 5835 5838 5840 5842 5844 5845 5845 5846 5848 5849 5850 5852 5854 5856 5857 5859 5860
5822 5820 5818 5815 5813 5811 5809 5807 5806 5805 5805 5805 5805 5806 5806 5806 5806 5806 5807 5809 5812 5815 5818 5822 5825 5828 5831 5834 5836 5838 5840 5841 5842 5843 5845 5846 5848 5849 5851 5853 5854 5855 5857
5816 5814 5811 5809 5807 5805 5803 5801 5800 5799 5799 5799 5799 5799 5800 5799 5799 5799 5800 5802 5805 5808 5811 5816 5820 5823 5826 5830 5833 5834 5835 5837 5839 5840 5841 5842 5843 5845 5847 5849 5850 5852 5853